THORAD AGENA D DEB

Satellite information

Favourite Embed

Satellite Type and Status

DEBRISIN ORBIT

Key statistics

Satellite THORAD AGENA D DEB at a glance.

Uptime

20122

Days in orbit

Revolutions

≈ 14.0

Per day

Orbit

SSO

Sun Synchronous Orbit

Inclination

98.9

Latest

Satellite identification and parameters

Extended collection of information and parameters for THORAD AGENA D DEB.

Object identification

Identified? True

Debris? True

Object name: THORAD AGENA D DEB

International designator: 1970-025MV

Object number (NORAD): 6139

Object ID (CCSDS): 6139

Country: UNITED STATES OF AMERICA (US)

Current information (Y/N): Y

RCS size: SMALL

Orbital parameters

Period: 102.82 minutes

Inclination: 98.9354 deg

SMA: 7270.189 km

Apoapsis: 945.25 km

Periapsis: 838.859 km

RAAN: 6.7264 deg

Eccentricy: 0.0073169

Argument of periapsis: 19.3199 deg

Mean anomaly: 341.0714 deg

Mean motion: 14.00503462 rev/day

Mean motion (dot): 0.0000225 rev/day2

B* drag term: 0.0015093 1/REarth

Two-line elements (TLE)

Creation date: May 9, 2025, 2:46 a.m.

Reference frame: TEME

Reference center: EARTH

Epoch: May 8, 2025, 3:28 a.m. UTC

TLE line 0: 0 THORAD AGENA D DEB

TLE line 1: 1 06139U 70025MV 25128.14512320 .00002250 00000-0 15093-2 0 9998

TLE line 2: 2 06139 98.9354 6.7264 0073169 19.3199 341.0714 14.00503462772283

Live tracking on map

Real-time ground track for satellite THORAD AGENA D DEB.

In-orbit conjunctions

A list of the most updated potential collisions computed for object THORAD AGENA D DEB.

Target Orbit TCA Probability of collision Miss distance Type
COSMOS 1275 DEB LEO 2025-03-26 17:13:17 0.0002018788 168.0 (m) DEBRIS
COSMOS 1275 DEB LEO 2025-02-13 17:05:38 0.000109091 238.0 (m) DEBRIS
METEOR 2-11 DEB LEO 2024-06-10 12:17:36 0.0002150125 387.0 (m) DEBRIS

Associated space launch

Meteorological research and development satellite

THORAD AGENA D DEB was lifted into orbit during the mission ‘Thorad SLV-2G Agena D | Nimbus 4’, on board a Thorad SLV-2G Agena D space rocket.

The launch took place on April 8, 1970, 8:17 a.m. from Space Launch Complex 2E.

For more information about the launch, click the button.

Launch to space Thorad SLV-2G Agena D | Nimbus 4
Thorad SLV-2G Agena D | Nimbus 4

Agency: N/A

Status: Launch Successful

Launch date: April 8, 1970, 8:17 a.m. UTC

Rocket: Thorad SLV-2G Agena D

Launch pad: Space Launch Complex 2E

Location: Vandenberg SFB, CA, USA

...

Latest news about this satellite

There are no fresh news available about this satellite. Check back as we update our databases every day.


Newsletter sign-up

Weekly statistics, charts and insights to help you stay on top of the space industry.